Weather History for KIKV - October, 2012

Change the Weather History Date:

Friday, October 26, 2012

  Actual Average (KDSM) Record (KDSM)
Temperature  
Mean Temperature 38 °F 49 °F  
Max Temperature 44 °F 59 °F 85 °F (1927)
Min Temperature 32 °F 40 °F 16 °F (1942)
Degree Days  
Heating Degree Days 27 16  
Month to date heating degree days 299  
Since 1 July heating degree days 399  
Cooling Degree Days 0 0  
Month to date cooling degree days 11  
Year to date cooling degree days 1063  
Moisture  
Dew Point 28 °F    
Average Humidity 66    
Maximum Humidity 100    
Minimum Humidity 46    
Precipitation  
Precipitation 0.00 in 0.09 in 1.11 in (1918)
Month to date precipitation 2.23  
Year to date precipitation 32.00  
Snow  
Snow 0.00 in 0.10 in 6.60 in (1997)
Month to date snowfall 0.3  
Since 1 July snowfall 0.3  
Since 1 September snowfall 0.3  
Snow Depth -    
Sea Level Pressure  
Sea Level Pressure 30.39 in    
Wind  
Wind Speed 9 mph (NW)    
Max Wind Speed 15 mph    
Max Gust Speed 23 mph    
Visibility 10 miles    
Events      
T = Trace of Precipitation, MM = Missing Value Source: NWS Daily Summary

Daily Weather History Graph

Daily Weather History Graph

Search for Another Location

Airport or City:

Trip Planner

Search our weather history database for the weather conditions in past years. The results will help you decide how hot, cold, wet, or windy it might be!

Date:

Astronomy

Oct. 26, 2012 Rise Set
Actual Time 7:39 AM CDT 6:15 PM CDT
Civil Twilight 7:11 AM CDT 6:44 PM CDT
Nautical Twilight 6:38 AM CDT 7:17 PM CDT
Astronomical Twilight 6:06 AM CDT 7:49 PM CDT
Moon 4:33 PM CDT (10/26) 4:34 AM CDT (10/26)
Length of Visible Light 11h 33m
Length of Day
10h 36m
Waxing Gibbous, 91% of the Moon is Illuminated
Oct 26
Waxing Gibbous
Oct 29
Full
Nov 6
Last Quarter
Nov 13
New
Nov 20
First Quarter

Hourly Weather History & Observations

Time (CDT) Temp. Windchill Dew Point Humidity Pressure Visibility Wind Dir Wind Speed Gust Speed Precip Events Conditions
12:15 AM 39.2 °F 32.5 °F 28.4 °F 65% 30.28 in 10.0 mi NW 10.4 mph - N/A   Overcast
12:35 AM 37.4 °F 29.3 °F 28.4 °F 70% 30.28 in 10.0 mi NNW 12.7 mph - N/A   Mostly Cloudy
1:15 AM 37.4 °F 32.1 °F 28.4 °F 70% 30.29 in 10.0 mi NW 6.9 mph - N/A   Scattered Clouds
1:35 AM 37.4 °F 32.8 °F 28.4 °F 70% 30.29 in 10.0 mi NW 5.8 mph - N/A   Scattered Clouds
1:55 AM 37.4 °F 31.4 °F 28.4 °F 70% 30.30 in 10.0 mi NW 8.1 mph - N/A   Clear
2:15 AM 35.6 °F 29.9 °F 28.4 °F 75% 30.29 in 10.0 mi NW 6.9 mph - N/A   Clear
2:35 AM 35.6 °F 31.7 °F 28.4 °F 75% 30.29 in 10.0 mi NW 4.6 mph - N/A   Clear
2:55 AM 35.6 °F 31.7 °F 28.4 °F 75% 30.30 in 10.0 mi NW 4.6 mph - N/A   Clear
3:15 AM 33.8 °F 30.8 °F 30.2 °F 87% 30.30 in 10.0 mi NW 3.5 mph - N/A   Clear
3:55 AM 32.0 °F 27.5 °F 32.0 °F 100% 30.31 in 10.0 mi West 4.6 mph - N/A   Clear
4:15 AM 32.0 °F 26.4 °F 30.2 °F 93% 30.32 in 10.0 mi WSW 5.8 mph - N/A   Clear
4:35 AM 33.8 °F 28.6 °F 32.0 °F 93% 30.34 in 10.0 mi WSW 5.8 mph - N/A   Mostly Cloudy
4:55 AM 33.8 °F 27.7 °F 33.8 °F 100% 30.35 in 10.0 mi West 6.9 mph - N/A   Overcast
5:15 AM 35.6 °F 30.7 °F 33.8 °F 93% 30.35 in 10.0 mi West 5.8 mph - N/A   Overcast
5:35 AM 35.6 °F 29.9 °F 33.8 °F 93% 30.37 in 10.0 mi West 6.9 mph - N/A   Overcast
5:55 AM 35.6 °F 29.2 °F 33.8 °F 93% 30.37 in 10.0 mi WNW 8.1 mph - N/A   Overcast
6:15 AM 35.6 °F 28.6 °F 33.8 °F 93% 30.37 in 10.0 mi WNW 9.2 mph - N/A   Overcast
6:35 AM 35.6 °F 29.2 °F 33.8 °F 93% 30.38 in 10.0 mi WNW 8.1 mph - N/A   Overcast
6:55 AM 35.6 °F 29.9 °F 33.8 °F 93% 30.38 in 10.0 mi WNW 6.9 mph - N/A   Overcast
7:15 AM 35.6 °F 29.2 °F 33.8 °F 93% 30.39 in 10.0 mi NW 8.1 mph - N/A   Overcast
7:55 AM 37.4 °F 32.8 °F 33.8 °F 87% 30.40 in 10.0 mi NW 5.8 mph - N/A   Overcast
8:55 AM 37.4 °F 31.4 °F 32.0 °F 81% 30.42 in 10.0 mi NW 8.1 mph - N/A   Overcast
9:15 AM 37.4 °F 30.3 °F 30.2 °F 75% 30.43 in 10.0 mi NW 10.4 mph 16.1 mph N/A   Overcast
9:35 AM 39.2 °F 32.5 °F 28.4 °F 65% 30.43 in 10.0 mi NW 10.4 mph - N/A   Mostly Cloudy
9:55 AM 39.2 °F 32.0 °F 26.6 °F 61% 30.44 in 10.0 mi NNW 11.5 mph 19.6 mph N/A   Overcast
10:15 AM 39.2 °F 31.2 °F 26.6 °F 61% 30.44 in 10.0 mi NW 13.8 mph - N/A   Mostly Cloudy
10:35 AM 42.8 °F 35.8 °F 24.8 °F 49% 30.44 in 10.0 mi NNW 13.8 mph 20.7 mph N/A   Scattered Clouds
10:55 AM 42.8 °F 35.4 °F 24.8 °F 49% 30.44 in 10.0 mi NNW 15.0 mph - N/A   Scattered Clouds
11:15 AM 41.0 °F 34.7 °F 24.8 °F 53% 30.44 in 10.0 mi NNW 10.4 mph 19.6 mph N/A   Mostly Cloudy
11:35 AM 42.8 °F 35.8 °F 24.8 °F 49% 30.44 in 10.0 mi NNW 13.8 mph 18.4 mph N/A   Mostly Cloudy
11:55 AM 42.8 °F 36.6 °F 24.8 °F 49% 30.44 in 10.0 mi North 11.5 mph - N/A   Scattered Clouds
12:15 PM 44.6 °F 38.1 °F 26.6 °F 49% 30.44 in 10.0 mi NNW 13.8 mph 19.6 mph N/A   Scattered Clouds
12:35 PM 42.8 °F 36.6 °F 28.4 °F 57% 30.44 in 10.0 mi NNW 11.5 mph - N/A   Mostly Cloudy
12:55 PM 42.8 °F 38.6 °F 26.6 °F 53% 30.43 in 10.0 mi NW 6.9 mph 10.4 mph N/A   Mostly Cloudy
1:15 PM 44.6 °F 39.7 °F 28.4 °F 53% 30.42 in 10.0 mi NNW 9.2 mph 23.0 mph N/A   Mostly Cloudy
1:35 PM 44.6 °F 38.8 °F 26.6 °F 49% 30.42 in 10.0 mi NW 11.5 mph - N/A   Scattered Clouds
1:55 PM 44.6 °F 38.4 °F 26.6 °F 49% 30.42 in 10.0 mi NW 12.7 mph 17.3 mph N/A   Mostly Cloudy
2:15 PM 44.6 °F 38.1 °F 24.8 °F 46% 30.41 in 7.0 mi NNW 13.8 mph - N/A   Mostly Cloudy
2:35 PM 42.8 °F 38.0 °F 26.6 °F 53% 30.42 in 10.0 mi NW 8.1 mph - N/A   Mostly Cloudy
2:55 PM 44.6 °F 38.8 °F 26.6 °F 49% 30.41 in 10.0 mi WNW 11.5 mph - N/A   Overcast
3:15 PM 42.8 °F 38.0 °F 26.6 °F 53% 30.41 in 10.0 mi NW 8.1 mph - N/A   Mostly Cloudy
3:35 PM 42.8 °F 36.6 °F 26.6 °F 53% 30.41 in 7.0 mi NW 11.5 mph - N/A   Mostly Cloudy
3:55 PM 44.6 °F 39.7 °F 26.6 °F 49% 30.41 in 7.0 mi WNW 9.2 mph - N/A   Mostly Cloudy
4:15 PM 42.8 °F 36.6 °F 26.6 °F 53% 30.40 in 10.0 mi NW 11.5 mph - N/A   Mostly Cloudy
4:35 PM 42.8 °F 37.0 °F 26.6 °F 53% 30.40 in 10.0 mi WNW 10.4 mph - N/A   Overcast
4:55 PM 42.8 °F 37.0 °F 26.6 °F 53% 30.40 in 10.0 mi NW 10.4 mph - N/A   Overcast
5:15 PM 41.0 °F 33.9 °F 26.6 °F 57% 30.40 in 10.0 mi WNW 12.7 mph - N/A   Overcast
5:35 PM 41.0 °F 34.7 °F 26.6 °F 57% 30.40 in 10.0 mi WNW 10.4 mph - N/A   Overcast
5:55 PM 41.0 °F 35.2 °F 26.6 °F 57% 30.40 in 10.0 mi NW 9.2 mph - N/A   Overcast
6:15 PM 39.2 °F 31.2 °F 26.6 °F 61% 30.40 in 10.0 mi NNW 13.8 mph - N/A   Overcast
6:35 PM 39.2 °F 32.5 °F 26.6 °F 61% 30.40 in 10.0 mi NW 10.4 mph 19.6 mph N/A   Overcast
6:55 PM 39.2 °F 32.5 °F 26.6 °F 61% 30.40 in 10.0 mi NNW 10.4 mph - N/A   Overcast
7:15 PM 39.2 °F 32.5 °F 26.6 °F 61% 30.40 in 10.0 mi NW 10.4 mph - N/A   Overcast
7:35 PM 39.2 °F 33.6 °F 26.6 °F 61% 30.40 in 10.0 mi NW 8.1 mph - N/A   Overcast
7:55 PM 39.2 °F 33.0 °F 26.6 °F 61% 30.41 in 10.0 mi NW 9.2 mph - N/A   Overcast
8:15 PM 39.2 °F 32.0 °F 24.8 °F 56% 30.41 in 10.0 mi NNW 11.5 mph - N/A   Overcast
8:35 PM 39.2 °F 34.2 °F 26.6 °F 61% 30.41 in 10.0 mi NW 6.9 mph - N/A   Overcast
8:55 PM 39.2 °F 33.6 °F 26.6 °F 61% 30.40 in 10.0 mi NW 8.1 mph - N/A   Overcast
9:15 PM 39.2 °F 35.9 °F 26.6 °F 61% 30.41 in 10.0 mi NNW 4.6 mph - N/A   Overcast
9:35 PM 39.2 °F 35.9 °F 26.6 °F 61% 30.41 in 10.0 mi NW 4.6 mph - N/A   Overcast
9:55 PM 39.2 °F 35.9 °F 26.6 °F 61% 30.42 in 10.0 mi NNW 4.6 mph - N/A   Overcast
10:15 PM 39.2 °F 35.9 °F 28.4 °F 65% 30.42 in 10.0 mi NW 4.6 mph - N/A   Overcast
10:35 PM 39.2 °F 37.0 °F 26.6 °F 61% 30.41 in 10.0 mi NNW 3.5 mph - N/A   Overcast
10:55 PM 39.2 °F 34.2 °F 24.8 °F 56% 30.41 in 10.0 mi NNW 6.9 mph - N/A   Overcast
11:15 PM 39.2 °F 34.2 °F 24.8 °F 56% 30.41 in 10.0 mi NW 6.9 mph - N/A   Overcast
11:35 PM 39.2 °F 35.9 °F 26.6 °F 61% 30.39 in 10.0 mi NW 4.6 mph - N/A   Overcast
11:55 PM 39.2 °F 35.9 °F 24.8 °F 56% 30.39 in 10.0 mi NNW 4.6 mph - N/A   Overcast